Location: Aydie
(43.5695°N, 0.1043°W)
Time: 05:31:33
(UTC+00:00)

SPOT 1/Viking Rocket - Pass Details

Date: 17 November 2025
Orbit: 773 x 788 km, 98.2° (Epoch: 04 December)

Event Time Altitude Azimuth Distance (km) Brightness Sun altitude
Rises 17:11:00 0° 132° (SE) 3,257 6.5 -7.1°
Reaches altitude 10° 17:13:37 10° 119° (ESE) 2,336 5.6 -7.6°
Maximum altitude 17:17:50 26° 65° (ENE) 1,509 4.5 -8.3°
Drops below altitude 10° 17:22:04 10° 10° (N) 2,356 5.8 -9.0°
Sets 17:24:43 0° 358° (N) 3,291 6.6 -9.5°
